Grand Island, NE

7:39 AM CDT on October 24, 2017 (GMT -0500)
Central Nebraska Regional

Weather History for KGRI - July, 2013

Change the Weather History Date:

Thursday, July 18, 2013

  Actual Average Record
Temperature  
Mean Temperature 83 °F 76 °F  
Max Temperature 95 °F 88 °F 111 °F (1936)
Min Temperature 71 °F 65 °F 50 °F (2009)
Degree Days  
Heating Degree Days 0 0  
Month to date heating degree days 0 0  
Since 1 June heating degree days 21 24  
Since 1 July heating degree days 0 0  
Cooling Degree Days 18 12  
Month to date cooling degree days 251 205  
Year to date cooling degree days 605 483  
Since 1 June cooling degree days 510 418  
Growing Degree Days 33 (Base 50)    
Moisture  
Dew Point 64 °F    
Average Humidity 59    
Maximum Humidity 84    
Minimum Humidity 33    
Precipitation  
Precipitation 0.00 in 0.11 in 3.45 in (1924)
Month to date precipitation 0.26 2.04  
Year to date precipitation 15.26 16.29  
Snow  
Snow 0.00 in 0.00 in - ()
Month to date snowfall 0.0 0.0  
Since 1 June snowfall 0.0 0.0  
Since 1 July snowfall 0.0 0.0  
Snow Depth 0.00 in    
Sea Level Pressure  
Sea Level Pressure 30.02 in    
Wind  
Wind Speed 13 mph (South)    
Max Wind Speed 23 mph    
Max Gust Speed 31 mph    
Visibility 10 miles    
Events      
T = Trace of Precipitation, MM = Missing Value Source: NWS Daily Summary

Daily Weather History Graph

Daily Weather History Graph

Search for Another Location

Airport or City:

Trip Planner

Search our weather history database for the weather conditions in past years. The results will help you decide how hot, cold, wet, or windy it might be!

Date:

Astronomy

Jul. 18, 2013 Rise Set
Actual Time 6:16 AM CDT 9:01 PM CDT
Civil Twilight 5:44 AM CDT 9:33 PM CDT
Nautical Twilight 5:04 AM CDT 10:14 PM CDT
Astronomical Twilight 4:17 AM CDT 11:00 PM CDT
Moon 5:00 PM CDT (7/18) 2:08 AM CDT (7/18)
Length of Visible Light 15h 49m
Length of Day
14h 44m
Waxing Gibbous, 77% of the Moon is Illuminated
Jul 18
Waxing Gibbous
Jul 22
Full
Jul 29
Last Quarter
Aug 6
New
Aug 14
First Quarter

Hourly Weather History & Observations

Time (CDT) Temp. Heat Index Dew Point Humidity Pressure Visibility Wind Dir Wind Speed Gust Speed Precip Events Conditions
12:53 AM 75.9 °F - 64.9 °F 69% 30.14 in 10.0 mi South 8.1 mph - N/A   Clear
1:53 AM 73.9 °F - 64.9 °F 73% 30.13 in 10.0 mi South 6.9 mph - N/A   Clear
2:53 AM 73.9 °F - 64.9 °F 73% 30.13 in 10.0 mi South 6.9 mph - N/A   Clear
3:53 AM 73.0 °F - 66.0 °F 79% 30.12 in 10.0 mi South 6.9 mph - N/A   Clear
4:53 AM 73.9 °F - 64.9 °F 73% 30.10 in 10.0 mi SSW 10.4 mph - N/A   Clear
5:53 AM 73.0 °F - 64.9 °F 76% 30.10 in 10.0 mi South 9.2 mph - N/A   Clear
6:53 AM 71.1 °F - 66.0 °F 84% 30.11 in 10.0 mi South 6.9 mph - N/A   Clear
7:53 AM 75.0 °F - 66.0 °F 73% 30.09 in 10.0 mi South 10.4 mph - N/A   Clear
8:53 AM 78.1 °F - 66.0 °F 66% 30.09 in 10.0 mi SSW 13.8 mph - N/A   Clear
9:53 AM 82.9 °F 85.4 °F 66.9 °F 58% 30.08 in 10.0 mi SSW 15.0 mph - N/A   Clear
10:53 AM 84.9 °F 87.6 °F 66.9 °F 55% 30.07 in 10.0 mi SW 18.4 mph 26.5 mph N/A   Clear
11:53 AM 87.1 °F 88.9 °F 64.9 °F 48% 30.05 in 10.0 mi SSW 20.7 mph 27.6 mph N/A   Partly Cloudy
12:53 PM 89.1 °F 91.0 °F 64.9 °F 45% 30.03 in 10.0 mi SSW 19.6 mph 26.5 mph N/A   Partly Cloudy
1:53 PM 91.9 °F 94.1 °F 64.9 °F 41% 30.01 in 10.0 mi South 19.6 mph 26.5 mph N/A   Partly Cloudy
2:53 PM 93.0 °F 94.6 °F 64.0 °F 38% 29.99 in 10.0 mi South 17.3 mph 27.6 mph N/A   Partly Cloudy
3:53 PM 93.9 °F 95.6 °F 64.0 °F 37% 29.97 in 10.0 mi South 18.4 mph 24.2 mph N/A   Partly Cloudy
4:53 PM 93.9 °F 95.2 °F 63.0 °F 36% 29.94 in 10.0 mi South 17.3 mph 26.5 mph N/A   Partly Cloudy
5:53 PM 95.0 °F 95.6 °F 62.1 °F 33% 29.92 in 10.0 mi SSW 16.1 mph 24.2 mph N/A   Clear
6:53 PM 93.9 °F 94.0 °F 61.0 °F 33% 29.90 in 10.0 mi South 16.1 mph 24.2 mph N/A   Clear
7:53 PM 91.0 °F 92.6 °F 64.0 °F 41% 29.88 in 10.0 mi South 6.9 mph 16.1 mph N/A   Clear
8:53 PM 86.0 °F 87.3 °F 64.0 °F 48% 29.89 in 10.0 mi South 8.1 mph - N/A   Clear
9:53 PM 82.0 °F 83.4 °F 64.0 °F 54% 29.91 in 10.0 mi South 8.1 mph - N/A   Clear
10:53 PM 80.1 °F 81.5 °F 63.0 °F 56% 29.92 in 10.0 mi South 10.4 mph - N/A   Clear
11:53 PM 81.0 °F 81.9 °F 62.1 °F 52% 29.93 in 10.0 mi South 12.7 mph - N/A   Clear